Location: Chand?puram
(16.7564°N, 80.2764°E)
Time: 14:53:58
(UTC+00:00)

Cosmos 2278 Rocket - Pass Details

Date: 15 November 2025
Orbit: 841 x 843 km, 71.0° (Epoch: 12 December)

Event Time Altitude Azimuth Distance (km) Brightness Sun altitude
Exits shadow 00:14:01 - 317° (NW) 2,947 4.5 -7.4°
Reaches altitude 10° 00:15:37 10° 308° (NW) 2,454 4.0 -7.0°
Maximum altitude 00:19:56 23° 258° (WSW) 1,716 3.3 -6.1°
Drops below altitude 10° 00:24:15 10° 207° (SSW) 2,452 4.5 -5.1°
Sets 00:27:11 0° 193° (SSW) 3,385 5.4 -4.4°
